SL-8 DEB, 1479

Orbit data source: Space-Track

SL-8 DEB, 1479 is space debris in LEO originally from a launch on Mon, 15 Mar 1965 UTC launched from the Tyuratam Missile And Space Complex (TTMTR). Debris objects in space refer to the collection of defunct objects orbiting the Earth. Examples of debris include non-operational satellites, rocket bodies, and fragments generated from explosions, collisions, or faulty payload assembly.

Loading next visibility...
SL-8 DEB details
Identifier
1479, 1965-020BD
Orbit
LEO
Last TLE update18 hours ago
Origin
Flag of CISRVSN (CIS)
ManufacturerUnknown
MissionSpacecraft
Bus & MotorUnknown
MassUnknown
Launch date (UTC)
1965-03-15 (60 years ago)
Launch vehicleUnknown
Launch site
Tyuratam Missile And Space Complex (TTMTR)
Object type
Payload
Rocket body
Debris
Shape & HBRUnknown
Radar Cross SectionSmall (<0.1 m²)

Expand to show TLE details & history

TLE from 18 hours ago
0 SL-8 DEB
1 01479U 65020BD  25015.18092751  .00000588  00000-0  13738-2 0  9995
2 01479  56.0317 299.2519 0745321  66.9639 300.8081 12.59676597731089
Epoch: 2025-01-15T04:20Z
Definitive object data (Epoch: 2025-01-15T04:20:32.136Z)
Latitude-0.00004°
Longitude119.24101°
Altitude1,161.285 km
Speed7.395 km/s
True Right ascension19h 57m 00s
True Declination0° 00' 00"
Sunlit
Object was in daylight at TLE epoch
Visualization TLE readout
Latitude-11.07144°
Longitude-55.31468°
Altitude1,732.62 km
Speed6.873 km/s
Apparent Right ascension09h 22m 12s
Apparent Declination-25° 00' 38"
Sunlit
Object is in full shadow
Visualization observer readout
Local Sidereal Time23:07:38
Azimuth63.94° ENE
Elevation-63.391°
Doppler factor1
Orbital elements
Apogee altitude2,005.621 km
Perigee altitude842.586 km
Semi-major axis7,802.241 km
Eccentricity0.0745321
Inclination56.0317°
RAAN299.2519°
Arg. of periapsis66.9639°
True anomaly293.12897°
Mean anomaly300.8081°
Eccentric anomaly297.00328°
Mean motion3.1493 °/min
BSTAR0.0013738
Orbital period114.31 mins
Loading maneuver chart data...
Loading historical data...
Loading historical data...
Loading historical data...
Loading historical data...
Loading historical data...
Loading historical data...
Loading historical data...

SL-8 DEB Visibility forecast

Observer location: undefined°, undefined

Span
Click to sort rows by Start time (UTC) header in descending order
Start Az.
Max El. time (UTC)
Max El. Az.
Max El.
End time (UTC)
End Az.
7 mins2025-01-15 23:40:38.472Z299.797° NW2025-01-15 23:43:38.472Z335.97° NNW18.98°2025-01-15 23:47:38.472Z25.404° NE
6 mins2025-01-16 01:42:38.472Z340.647° N2025-01-16 01:45:38.472Z17.126° NNE17.289°2025-01-16 01:48:38.472Z48.826° ENE
11 mins2025-01-16 03:41:38.472Z332.074° NNW2025-01-16 03:45:38.472Z36.226° NE35.975°2025-01-16 03:52:38.472Z109.357° ESE
12 mins2025-01-16 05:39:38.472Z297.681° NW2025-01-16 05:44:38.472Z234.426° WSW35.003°2025-01-16 05:51:38.472Z165.894° S
10 mins2025-01-16 20:28:38.472Z202.304° SSW2025-01-16 20:33:38.472Z126.373° SE38.821°2025-01-16 20:38:38.472Z54.695° ENE
|